Reflectivity
-20 -20 -20 -20 -20 -20 -20 -20 -20 -20 -20 -20 -20 -20 -20 -20 -20 -20 -20 -20 -20 -20 -20 -20 -20 -20 -20 -20 -20 -20 -20 -20 -20 -20 -20 -20 -20 -20 -20 -20 -20 -20 -20 -20
-20 -20 -20 -20 -20 -20 -20 -20 -20 -20 -20 -20 -20 -20 -20 -20 -20 -20 -20 -20 -20 -20 -20 -20 -20 -20 -20 -20 -20 -20 -20 -20 -20 -20 -20 -20 -20 -20 -20 -20 -20 -20 -20 -20
-20 -20 -20 -20 -20 -20 -20 -20 -20 -20 -20 -20 -20 -20 -20 -20 -20 -20 -20 -20 -20 -20 -20 -20 -20 -20 -20 -20 -20 -20 -20 -20 -20 -20 -20 -20 -20 -20 -20 -20 -20 -20 -20 -20
-20 -20 -20 -20 -20 -20 -20 -20 -20 -20 -20 -20 -20 -20 -20 -20 -20 -20 -20 -20 -20 -20 -20 -20 -20 -20 -20 -20 -20 -20 -20 -20 -20 -20 -20 -20 -20 -20 -20 -20 -20 -20 -20 -20
-20 -20 -20 -20 -20 -20 -20 -20 -20 -20 -20 -20 -20 -20 -20 -20 -20 -20 -20 -20 -20 -20 -20 -20 -20 -20 -20 -20 -20 -20 -20 -20 -20 -20 -20 -20 -20 -20 -20 -20 -20 -20 -20 -20
-20 -20 -20 -20 -20 -20 -20 -20 -20 -20 -20 -20 -20 -20 -20 -20 -20 -20 -20 -20 -20 -20 -20 -20 -20 -20 -20 -20 -20 -20 -7 -20 -20 -20 -20 -20 -20 -20 -20 -20 -20 -20 -20 -20
-20 -20 -20 -20 -20 -20 -20 -20 -20 -20 -20 -20 -20 -20 -20 -20 -20 -20 -20 -20 -20 -20 -20 -20 -20 -20 -20 -20 -20 -20 -20 -20 -20 -20 -0 -20 -4 -5 -7 -17 4 3 -20 -20
-20 -20 -20 -20 -20 -20 -20 -20 -20 -20 -20 -20 -20 -20 -20 -20 -20 -20 -20 -20 -20 -20 -20 -20 -20 -20 -20 -20 -20 -20 -20 -20 -20 -20 -8 -20 -2 -13 9 7 8 9 6 4
-20 -20 -20 -20 -20 -20 -20 -20 -20 -20 -20 -20 -20 -20 -20 -20 -20 -20 -20 -20 -20 -20 -20 -20 -20 -20 -20 -20 -20 -20 -20 -20 -18 -19 -20 -20 -20 10 11 4 7 10 5 9
-20 -20 -20 -20 -20 -20 -20 -20 -20 -20 -20 -20 -20 -20 -20 -20 -20 -20 -20 -20 -20 -20 -20 -20 -20 -20 -20 -20 -20 -20 -20 -20 -20 -0 -20 -12 -20 15 6 8 15 16 13 17
-20 -20 -20 -20 -20 -20 -20 -20 -20 -20 -20 -20 -20 -20 -20 -20 -20 -20 -20 -20 -20 -20 -20 -20 -20 -20 -20 -20 -20 -20 -20 -20 -20 -20 -19 -5 6 15 15 17 24 13 18 18
-20 -20 -20 -20 -20 -20 -20 -20 -20 -20 -20 -20 -20 -20 -20 -20 -20 -20 -20 -20 -20 -20 -20 -20 -20 -20 -20 -20 -20 -20 -19 -17 -20 -20 8 17 19 18 18 20 12 8 7 18
-20 -20 -20 -20 -20 -20 -20 -20 -20 -20 -20 -20 -20 -20 -20 -20 -20 -20 -20 -20 -20 -20 -20 -20 -20 -20 -20 -20 -12 -13 8 -14 -20 -5 14 20 20 17 14 18 18 11 2 7
-20 -20 -20 -20 -20 -20 -20 -20 -20 -20 -20 -20 -20 -20 -20 -20 -20 -20 -20 -20 -20 -20 -20 -20 -20 -20 -20 -16 6 8 2 -20 -20 -20 -1 14 16 20 24 24 20 20 10 -2
-20 -20 -20 -20 -20 -18 -20 -20 -20 -20 -20 -20 -20 -20 -20 -20 -20 -20 -20 -20 -20 -20 -20 -20 -20 -20 -10 3 10 8 -19 -20 -20 -15 -8 7 4 3 4 8 15 18 5 12
-20 -20 -20 -20 -20 -13 -20 -20 -20 -20 -20 -20 -20 -20 -20 -20 -20 -20 -20 -20 -20 -20 -20 -20 -20 -20 -7 -17 -10 -20 -20 -18 -20 -18 -20 -20 -20 -3 -3 -9 -5 -8 3 -6
-19 -18 14 9 -14 -20 -20 -20 -20 -20 -20 -20 -20 -20 -20 -20 -20 -20 -20 -20 -20 -20 -20 -20 -20 -20 -20 -20 -20 -20 -20 -20 -20 -20 -20 -20 -20 -20 -20 -20 -20 -20 -12 -7
-20 -16 -1 -18 -20 -20 -20 -20 -20 -20 -20 -20 -20 -20 -20 -20 -20 -20 -20 -20 -20 -20 -20 -20 -20 -20 -20 -20 -20 -20 -20 -20 -20 -20 -20 -20 -20 -20 -20 -20 -20 -20 -20 -20
-20 -20 -20 -20 -20 -20 -20 -20 -20 -20 -20 -20 -20 -20 -20 -20 -20 -20 -20 -20 -20 -20 -20 -20 -20 -20 -20 -20 -20 -20 -20 -20 -20 -20 -20 -20 -20 -20 -20 -20 -20 -20 -20 -20
-20 -20 -20 -20 -20 -20 -20 -20 -20 -20 -20 -20 -20 -20 -20 -20 -20 -20 -20 -20 -20 -20 -20 -20 -20 -20 -20 -20 -20 -20 -20 -20 -20 -20 -20 -20 -20 -20 -20 -20 -20 -20 -20 -20
-20 -20 -20 -20 -20 -20 -20 -20 -20 -20 -20 -20 -20 -20 -20 -20 -20 -20 -20 -20 -20 -20 -20 -20 -20 -20 -18 -20 -20 -20 -20 -20 -20 -20 -20 -20 -20 -20 -20 -20 -20 -20 -20 -20
-20 -20 -20 -20 -12 -20 -19 -20 -20 -20 -20 -20 -20 -20 -20 -20 -20 -20 -20 -20 -20 -20 -20 -20 -20 -20 -20 -20 -20 -20 -20 -20 -20 -20 -20 -20 -20 -20 -20 -20 -20 -20 -20 -20
-20 -20 -20 -20 -20 -15 -12 -20 -20 -20 -20 -20 -20 -20 -20 -20 -20 -20 -20 -20 -20 -20 -20 -20 -20 -20 -20 -20 -20 -20 -20 -20 -20 -20 -20 -20 -20 -20 -20 -20 -20 -20 -20 -20
-20 -20 -20 -20 -19 -16 -20 -20 -20 -20 -20 -20 -20 -20 -20 -20 -20 -20 -20 -20 -20 -20 -20 -20 -20 -20 -20 -20 -20 -20 -20 -20 -20 -20 -20 -20 -20 -20 -20 -20 -20 -20 -20 -20
-20 -20 -20 -20 -20 -6 -20 -20 -20 -20 -20 -20 -20 -20 -20 -20 -20 -20 -20 -20 -20 -20 -20 -20 -20 -20 -20 -20 -20 -20 -20 -20 -20 -20 -20 -20 -20 -20 -20 -20 -20 -20 -20 -20
-20 -20 -20 -20 -20 -20 -20 -20 -20 -20 -20 -20 -20 -20 -20 -20 -20 -20 -20 -20 -20 -20 -20 -20 -20 -20 -20 -20 -20 -20 -20 -20 -20 -20 -20 -20 -20 -20 -20 -20 -20 -20 -20 -20
Wind_Speed
4 3 7 8 5 2 2 1 3 5 10 1 7 6 3 5 7 8 7 7 6 7 6 7 9 10 11 11 12 12 12 12 11 9 11 8 8 10 6 7 8 8 9 8
5 6 10 5 3 4 3 2 6 6 6 7 7 4 2 3 3 4 5 6 5 5 8 11 12 12 12 13 14 14 13 12 11 8 8 6 8 6 9 7 8 9 8 9
8 6 6 5 4 4 3 4 4 7 3 3 2 4 5 2 4 5 5 4 4 5 7 9 11 10 10 12 13 13 14 12 13 13 9 7 7 7 7 8 9 8 10 11
6 7 6 3 5 6 3 7 7 5 2 4 1 8 6 5 3 1 2 4 5 6 7 8 10 11 11 11 9 12 13 14 12 13 11 14 12 13 11 10 10 10 12 11
7 3 3 4 6 7 7 2 1 1 1 2 2 1 2 5 5 5 2 2 5 6 7 10 10 10 9 10 11 11 12 12 15 14 14 11 13 10 9 11 16 14 11 10
6 1 4 7 4 3 4 3 5 4 3 4 7 7 3 6 5 3 3 2 3 5 6 7 8 9 11 10 10 11 12 12 13 12 14 15 15 15 13 14 13 9 8 8
1 7 4 4 3 1 4 6 3 4 1 6 3 2 9 5 4 5 6 4 3 4 5 7 11 10 11 12 12 12 14 14 14 15 13 14 14 15 13 14 11 12 9 8
5 3 5 3 7 7 5 8 7 6 4 5 2 7 7 4 4 4 5 4 3 5 5 6 9 8 11 12 13 15 15 17 17 16 15 14 15 10 10 11 11 9 9 9
5 4 1 3 4 5 4 4 4 2 1 2 4 6 2 4 5 5 6 4 1 4 5 6 7 8 10 12 12 13 15 15 16 16 13 14 14 14 12 13 12 8 11 10
5 1 1 1 3 4 4 6 4 2 2 6 7 6 10 8 11 9 8 6 3 2 5 6 6 7 8 9 9 10 11 13 14 15 14 13 14 13 13 12 13 12 11 12
5 4 2 1 4 7 2 1 4 3 4 4 7 10 7 7 7 14 8 6 4 2 2 4 5 6 7 8 9 10 12 13 14 14 14 14 14 15 14 13 13 14 12 13
5 5 5 6 0 1 1 5 5 5 5 5 1 15 2 1 3 7 7 7 6 3 1 2 4 6 6 7 9 11 11 12 13 14 13 14 14 16 15 15 16 15 15 13
8 2 2 6 4 2 3 4 4 4 3 14 4 13 2 3 5 5 8 6 5 3 4 3 4 5 5 7 9 10 11 12 12 13 12 14 16 15 16 16 16 16 16 15
6 4 7 9 5 4 3 4 5 5 3 13 16 24 9 7 9 8 7 7 6 4 2 2 3 5 6 8 9 9 10 11 11 12 12 14 15 15 15 15 16 16 17 17
4 1 1 2 1 1 4 5 7 10 17 10 19 13 14 10 13 15 9 8 8 5 3 4 4 4 6 7 9 9 9 9 10 10 12 13 12 13 13 14 15 16 16 16
2 4 3 6 4 5 7 3 11 16 14 16 13 24 11 3 8 10 12 10 8 6 5 4 4 6 8 8 8 9 9 9 9 10 11 12 13 13 14 15 15 15 16 17
4 5 3 6 3 5 9 10 13 4 6 6 9 11 5 3 6 10 11 9 8 8 6 5 4 5 5 6 8 8 8 7 9 10 11 13 13 14 14 13 13 15 16 15
6 6 3 2 1 6 7 4 6 8 8 9 11 3 2 4 5 7 5 8 10 9 8 6 4 4 4 4 5 7 8 8 10 11 12 13 13 13 13 14 15 15 13 16
4 5 3 2 3 8 7 4 5 6 7 4 4 8 8 10 6 3 6 5 6 6 6 3 2 2 4 5 6 7 8 9 10 11 12 13 12 12 12 14 14 12 13 14
5 4 4 3 3 6 7 4 5 5 6 5 7 11 14 8 5 4 10 9 10 7 5 5 3 3 5 4 5 6 6 8 10 10 11 11 12 12 13 12 12 11 10 12
4 1 7 4 5 8 8 6 4 6 8 5 7 11 14 7 3 7 14 9 9 8 7 5 5 5 2 2 5 6 4 5 4 6 10 11 10 12 10 11 11 11 11 13
8 8 4 4 6 10 5 5 6 5 2 5 5 7 7 5 8 12 12 11 12 10 7 4 6 5 2 3 5 5 5 4 2 5 8 8 8 8 8 10 10 11 12 12
4 8 8 10 9 1 6 3 3 5 5 5 7 7 9 11 6 12 13 13 11 9 7 4 7 6 3 3 3 6 3 2 4 7 6 6 6 7 7 6 8 7 10 10
3 3 4 2 5 6 6 3 3 5 6 5 6 12 13 12 13 11 13 12 11 9 8 6 7 6 3 3 4 2 1 3 6 6 5 6 5 7 7 6 7 6 6 8
5 5 5 5 6 4 9 9 6 5 5 6 9 9 14 15 14 13 12 13 11 10 9 7 7 7 5 4 5 2 3 4 6 6 6 6 6 5 5 5 5 7 8 10
6 7 6 8 5 3 3 2 7 8 7 9 11 11 11 14 17 13 13 11 12 11 10 8 8 8 6 5 5 4 3 4 4 6 5 3 4 4 5 5 6 16 17 19
Wind_Direction
27 69 234 212 204 119 78 168 249 255 267 340 257 241 78 53 63 70 60 50 39 31 349 8 8 5 2 5 2 359 353 352 352 350 347 345 333 329 328 321 311 345 327 320
42 236 237 177 168 230 224 273 273 278 269 168 269 246 58 49 59 88 91 63 34 3 1 1 1 1 2 355 354 353 350 345 349 346 336 314 313 309 310 310 326 313 318 318
167 221 103 150 185 210 220 201 238 231 311 301 307 257 203 89 125 102 72 67 45 21 360 355 356 356 354 356 347 347 341 347 347 341 333 324 313 308 313 319 313 312 309 303
219 246 233 176 244 151 273 226 231 234 107 240 44 285 219 179 172 142 45 28 9 7 3 355 353 354 354 346 335 344 341 353 337 339 334 334 324 320 317 308 304 303 304 296
234 163 131 156 216 154 225 161 172 174 230 26 345 357 291 117 242 217 207 52 16 5 355 348 350 345 334 343 349 346 339 338 342 339 333 326 319 310 307 307 303 304 299 287
217 198 164 195 194 179 130 88 45 50 80 271 205 179 250 195 211 174 185 149 24 359 356 350 344 336 350 343 353 337 347 342 338 338 327 327 318 317 316 311 306 296 295 294
270 220 215 149 251 97 102 87 325 323 353 239 193 187 253 193 200 195 175 150 38 13 352 342 355 349 348 347 350 342 348 342 342 342 330 328 319 318 311 311 304 305 297 283
176 317 169 162 179 184 166 160 165 232 217 254 173 243 260 180 148 115 106 113 39 4 357 344 353 346 349 347 347 348 348 346 346 344 340 335 330 323 319 316 313 306 304 301
158 266 279 159 149 144 173 167 180 170 116 16 230 292 195 150 179 164 171 165 72 358 347 344 355 352 347 347 341 342 344 347 347 341 340 340 336 331 335 331 327 323 317 317
194 153 256 79 91 33 149 157 71 7 272 259 271 281 255 225 224 200 185 190 165 14 358 345 348 344 339 334 335 338 341 349 345 341 349 346 344 342 350 347 343 336 340 341
133 127 255 120 208 185 113 179 73 142 164 222 284 270 212 227 203 198 170 162 160 163 284 332 337 333 328 330 342 343 351 352 353 349 347 352 353 354 2 357 354 353 345 357
189 138 180 200 52 299 139 189 150 132 249 242 178 262 347 234 158 137 146 155 157 152 89 340 323 325 336 340 349 350 351 358 358 353 350 1 358 6 4 2 359 355 360 3
182 173 49 347 353 11 203 188 162 104 80 259 197 268 116 105 151 166 156 157 143 116 51 0 356 343 339 350 352 351 359 3 359 359 356 8 7 5 3 3 4 5 7 6
86 143 176 218 202 141 182 196 184 164 196 273 248 270 240 210 214 193 173 153 143 118 73 20 2 353 3 5 355 355 3 5 4 4 8 16 7 2 5 3 5 8 11 13
93 172 90 264 162 213 230 200 195 209 242 226 268 249 265 213 211 201 157 152 145 145 107 54 21 359 19 15 360 3 7 7 6 11 18 20 11 9 11 11 13 17 18 20
12 140 102 320 285 241 264 218 237 247 259 260 272 271 289 292 108 149 158 155 152 149 127 93 54 40 29 18 10 9 9 9 14 19 22 21 17 15 16 15 16 19 24 27
106 105 114 259 301 323 293 221 225 219 215 208 234 251 168 174 179 160 145 153 152 147 134 110 77 55 35 21 10 14 12 13 25 30 26 25 20 19 15 15 17 22 26 27
139 138 146 230 216 257 254 214 202 212 236 219 253 219 176 135 96 106 128 146 149 145 136 120 93 75 36 19 13 30 26 27 34 34 32 30 22 20 14 18 20 22 23 29
121 139 138 155 206 300 286 204 186 186 284 224 197 124 115 116 80 76 137 128 129 124 117 130 140 94 63 39 41 49 38 38 40 36 38 32 29 25 20 19 14 21 25 30
109 53 129 141 216 248 239 192 163 129 295 172 149 156 160 159 176 221 157 133 123 118 126 132 110 88 78 30 67 62 37 44 39 35 41 35 33 29 27 19 17 15 28 32
135 115 206 174 227 271 239 159 141 100 245 169 167 166 168 195 200 147 135 127 129 133 131 116 94 96 70 26 84 66 34 41 337 40 53 44 29 36 25 24 25 23 29 35
163 161 190 185 220 261 135 83 179 205 47 149 143 168 162 123 124 134 131 138 140 138 128 127 113 96 12 57 91 77 59 304 9 45 47 38 24 26 18 23 19 25 30 35
202 182 182 188 209 236 216 177 153 161 152 182 161 158 145 139 158 150 146 148 145 140 137 134 125 106 34 56 75 88 326 13 59 61 47 38 32 20 10 18 23 32 36 35
256 168 198 118 233 226 233 219 206 180 191 163 157 152 155 155 154 150 149 150 147 144 140 140 123 109 86 57 67 82 104 65 66 55 41 44 37 42 8 16 29 30 44 44
195 138 176 272 263 303 235 218 180 169 144 128 135 161 162 151 161 156 155 155 151 149 150 144 135 126 108 97 81 72 78 84 82 68 60 48 48 35 15 23 29 39 27 54
184 178 174 221 206 211 255 282 157 160 178 165 150 149 160 162 160 159 158 157 153 154 151 141 137 129 122 105 90 80 85 92 90 88 74 57 54 41 48 30 27 33 49 50